Location: Unspecified
(33.6682°S, 0.0000°E)
Time: 08:44:03
(UTC+00:00)

Tiros 1 despin weight - Pass Details

Date: 22 June 2019
Orbit: 594 x 642 km, 48.2° (Epoch: 16 July)

Event Time Altitude Azimuth Distance (km) Brightness Sun altitude
Rises 13:33:18 0° 241° (WSW) 2,957 ? 28.9°
Reaches altitude 10° 13:36:47 10° 214° (SW) 2,055 ? 28.6°
Maximum altitude 13:39:13 14° 183° (S) 1,817 ? 28.4°
Drops below altitude 10° 13:41:39 10° 152° (SSE) 2,059 ? 28.2°
Sets 13:45:09 0° 126° (SE) 2,969 ? 27.8°
